Regional Weather Roundup
Issued by NWS

Home | Current Version | Previous Version | Text Only | Print | Product List | Glossary Off
Versions: 1 2 3 4 5 6 7 8 9 10 11 12 13 14 15 16 17 18 19 20 21 22 23 24 25 26 27 28 29 30 31 32 33 34 35 36 37 38 39 40 41 42 43 44 45 46 47 48 49 50

000
ASUS45 KPSR 200310
RWRAZ

ARIZONA REGIONAL HOURLY WEATHER ROUNDUP
NATIONAL WEATHER SERVICE PHOENIX AZ
800 PM MST FRI SEP 19 2014

NOTE: FAIR INDICATES FEW OR NO CLOUDS BELOW 12,000 FEET WITH NO
SIGNIFICANT WEATHER AND/OR OBSTRUCTIONS TO VISIBILITY.

AZZ001>003-036-200400-
NORTHWEST ARIZONA

CITY           SKY/WX    TMP DP  RH WIND       PRES   REMARKS
BULLHEAD CITY  CLEAR     93  48  21 CALM      29.75R
KINGMAN        CLEAR     75  45  34 SW6       29.95R
$$

AZZ004>008-015-016-018-200400-
NORTH CENTRAL ARIZONA

CITY           SKY/WX    TMP DP  RH WIND       PRES   REMARKS
GRAND CANYON   PTCLDY    59  56  89 CALM      30.18R
PRESCOTT       CLEAR     71  54  54 S7        30.06R
FLAGSTAFF        N/A     57  54  89 MISG      30.21R
PAYSON         CLEAR     72  61  68 CALM      30.08R
PAGE           PTCLDY    82  48  30 CALM      29.96R
$$

AZZ009>014-017-200400-
NORTHEAST ARIZONA

CITY           SKY/WX    TMP DP  RH WIND       PRES   REMARKS
WINSLOW        CLEAR     74  56  53 W6        30.03R
SAINT JOHNS    CLOUDY    77  48  35 NW12      30.06R
WINDOW ROCK    CLOUDY    64  46  52 CALM      30.16
SHOW LOW       CLEAR     64  55  72 S9        30.16R
$$

AZZ023-200400-
GREATER PHOENIX AREA

CITY           SKY/WX    TMP DP  RH WIND       PRES   REMARKS
PHOENIX        PTCLDY    92  57  30 SW3       29.75R
BUCKEYE          N/A     86  66  51 S5        29.77R
GLENDALE       PTCLDY    91  61  35 S3        29.77R
LUKE AFB       CLEAR     90  62  39 SW6       29.75R
DEER VALLEY    CLEAR     91  53  27 SW6       29.78R
SCOTTSDALE     CLEAR     91  57  31 W5        29.80R
CHANDLER       PTCLDY    90  61  37 SW6       29.77R
$$

AZZ027-028-200400-
SOUTHWEST MARICOPA COUNTY AND PINAL COUNTY

CITY           SKY/WX    TMP DP  RH WIND       PRES   REMARKS
CASA GRANDE    MOCLDY    90  61  37 CALM      29.80R
GILA BEND      CLEAR     91  57  31 CALM      29.77R
$$

AZZ503-504-507>509-200400-
SOUTHEAST ARIZONA

CITY           SKY/WX    TMP DP  RH WIND       PRES   REMARKS
TUCSON         CLEAR     81  67  62 SW3       29.91R
DAVIS-MONTHAN  PTCLDY    79  68  67 S5        29.89R
RYAN FIELD       N/A     81  72  74 S3        29.90R
NOGALES        CLEAR     70  65  84 E5        29.99R
SIERRA VISTA   PTCLDY    72  64  78 W9        30.05R
DOUGLAS        CLOUDY    76  64  66 CALM      30.00R
SAFFORD        PTCLDY    80  66  62 W6        29.89R
$$

AZZ020-021-025-026-031-200400-
SOUTHWEST ARIZONA

CITY           SKY/WX    TMP DP  RH WIND       PRES   REMARKS
YUMA           PTCLDY    95  52  23 CALM      29.71R
$$

CAZ031-033-041-043-047-048-061-200400-
SOUTHERN CALIFORNIA

CITY           SKY/WX    TMP DP  RH WIND       PRES   REMARKS
DOWNTOWN L.A.  CLEAR     71  61  70 CALM      29.84S
L.A. AIRPORT   CLEAR     69  61  75 W7        29.85S
SAN DIEGO      PTCLDY    72  61  68 W7        29.87S
BURBANK        CLEAR     72  58  61 S5        29.85R
ONTARIO        PTCLDY    73  59  61 W10       29.85R
RIVERSIDE      CLEAR     73  60  63 W8        29.86R
PALM SPRINGS   CLEAR     91  56  30 NW17      29.75R
EL CENTRO NAS  CLEAR     89  55  31 NE8       29.68R
IMPERIAL       CLEAR     94  53  25 NE6       29.68R
BLYTHE         CLEAR     94  45  18 SW7       29.72R
NEEDLES        CLEAR     93  48  21 W8        29.76R
$$

NVZ020-UTZ003-200400-
SOUTHERN NEVADA-UTAH

CITY           SKY/WX    TMP DP  RH WIND       PRES   REMARKS
LAS VEGAS      CLEAR     92  35  13 S12       29.80R
SALT LAKE CITY PTCLDY    72  56  57 CALM      30.04R
$$

NMZ009-TXZ055-200400-
NEW MEXICO-WEST TEXAS

CITY           SKY/WX    TMP DP  RH WIND       PRES   REMARKS
ALBUQUERQUE    PTCLDY    73  57  57 SE7       30.06R
EL PASO        PTCLDY    75  65  70 E3        29.97R
$$


........................KEY........................
SKY/WX - SKY CONDITION/WEATHER
TMP    - TEMPERATURE IN FAHRENHEIT
DP     - DEW POINT IN FAHRENHEIT
RH     - RELATIVE HUMIDITY IN PERCENT
WIND   - DIRECTION AND SPEED IN MILES PER HOUR (MPH)
VRB    - VARIABLE WIND DIRECTION
PRES   - MEAN SEA LEVEL PRESSURE IN INCHES OF MERCURY
         F - FALLING PRESSURE   R - RISING PRESSURE
         S - STEADY PRESSURE
VSB    - VISIBILITY IN MILES
HX     - HEAT INDEX IN FAHRENHEIT
WCI    - WIND CHILL INDEX IN FAHRENHEIT
TC     - TEMPERATURE IN CELSIUS WHICH IS ALSO KNOWN AS
         TEMPERATURE IN CENTIGRADE
AFB    - AIR FORCE BASE
         LUKE AFB IS LUKE AIR FORCE BASE
         DAVIS-MONTHAN IS DAVIS-MONTHAN AIR FORCE BASE
NAS    - NAVAL AIR STATION
         EL CENTRO NAS IS EL CENTRO NAVAL AIR STATION
N/A    - NOT AVAILABLE



USA.gov is the U.S. government's official web portal to all federal, state and local government web resources and services.